Find Starlink 35035

NORAD ID: 65407 Int'l Des: 2025-192 Owner: SPXS Country: US Constellation: starlink operational
LEOCIRCULAR

現在のビュー

3D地球を読み込み中...

Starlink 35035について

説明を読み込み中...

次回通過

Passes for default location (London). Set your location on the main map for personalized predictions.

高度履歴

Loading altitude history...

軌道要素

1 65407U 25192D 26146.61016926 .00014706 00000-0 50763-3 0 9993
2 65407 53.1576 230.4583 0001164 88.8521 271.2613 15.30200577 41322
Epoch: May 26, 2026 • Age: 5 hours

現在のステータス

高度 479.5 km
速度 7.63 km/s
衛星直下点 46.32°N, 101.99°E
打ち上げ日 Aug 31, 2025
運用期間 0.7 years
タイプ internet

技術仕様

分類 Payload
質量 575.00 kg
乾燥質量 530.00 kg
総質量 575.00 kg
長さ 0.30 m
直径 4.10 m
スパン 29.00 m
形状 Box + pan
製造者 SPXS
バスタイプ Starlink V2MO
フェーズステータス In Orbit
所有者/国 SPXS/US

Most Searched